Weather History for KCUB - May, 2013

Change the Weather History Date:

Friday, May 10, 2013

  Actual Average Record
Temperature  
Mean Temperature 73 °F 70 °F  
Max Temperature 87 °F 83 °F 93 °F (2002)
Min Temperature 59 °F 59 °F 55 °F (2006)
Degree Days  
Heating Degree Days 0 1  
Month to date heating degree days 16 10  
Since 1 July heating degree days 2191 2311  
Cooling Degree Days 8 6  
Month to date cooling degree days 17 53  
Year to date cooling degree days 131 152  
Growing Degree Days 24 (Base 50)    
Moisture  
Dew Point 59 °F    
Average Humidity 59    
Maximum Humidity 90    
Minimum Humidity 35    
Precipitation  
Precipitation 0.00 in 0.09 in 0.19 in (2014)
Month to date precipitation 0.66 0.83  
Year to date precipitation 15.46 14.68  
Sea Level Pressure  
Sea Level Pressure 30.04 in    
Wind  
Wind Speed 4 mph (SSW)    
Max Wind Speed 14 mph    
Max Gust Speed 20 mph    
Visibility 10 miles    
Events      
T = Trace of Precipitation, MM = Missing Value Source: NWS Daily Summary

Daily Weather History Graph

Daily Weather History Graph

Search for Another Location

Airport or City:

Trip Planner

Search our weather history database for the weather conditions in past years. The results will help you decide how hot, cold, wet, or windy it might be!

Date:

Astronomy

May. 10, 2013 Rise Set
Actual Time 6:26 AM EDT 8:14 PM EDT
Civil Twilight 5:59 AM EDT 8:42 PM EDT
Nautical Twilight 5:26 AM EDT 9:15 PM EDT
Astronomical Twilight 4:51 AM EDT 9:50 PM EDT
Moon 6:49 AM EDT (5/10) 9:01 PM EDT (5/10)
Length of Visible Light 14h 43m
Length of Day
13h 48m
New Moon, 0% of the Moon is Illuminated
May 10
New Moon
May 18
First Quarter
May 25
Full
May 31
Last Quarter
Jun 8
New

Hourly Weather History & Observations

Time (EDT) Temp. Heat Index Dew Point Humidity Pressure Visibility Wind Dir Wind Speed Gust Speed Precip Events Conditions
1:53 AM 63.0 °F - 59.0 °F 87% 30.08 in 10.0 mi Calm Calm - N/A   Clear
2:53 AM 62.1 °F - 59.0 °F 90% 30.08 in 10.0 mi Calm Calm - N/A   Clear
4:53 AM 60.1 °F - 57.9 °F 93% 30.07 in 10.0 mi Calm Calm - N/A   Clear
5:53 AM 60.1 °F - 57.0 °F 90% 30.06 in 8.0 mi Calm Calm - N/A   Clear
6:53 AM 60.1 °F - 57.0 °F 90% 30.07 in 6.0 mi Calm Calm - N/A   Clear
8:53 AM 69.1 °F - 61.0 °F 75% 30.07 in 10.0 mi South 3.5 mph - N/A   Clear
9:53 AM 75.0 °F - 61.0 °F 62% 30.09 in 10.0 mi Calm Calm - N/A   Clear
10:53 AM 79.0 °F - 62.1 °F 56% 30.08 in 10.0 mi South 4.6 mph - N/A   Clear
11:53 AM 82.9 °F 83.2 °F 60.1 °F 46% 30.07 in 10.0 mi SW 4.6 mph - N/A   Clear
12:53 PM 86.0 °F 84.7 °F 55.9 °F 36% 30.07 in 10.0 mi SSW 12.7 mph 18.4 mph N/A   Scattered Clouds
1:53 PM 87.1 °F 85.9 °F 57.0 °F 36% 30.06 in 10.0 mi SW 10.4 mph - N/A   Scattered Clouds
2:53 PM 84.9 °F 83.9 °F 57.0 °F 38% 30.04 in 10.0 mi SW 9.2 mph - N/A   Mostly Cloudy
3:53 PM 84.9 °F 83.9 °F 57.0 °F 38% 30.02 in 10.0 mi SW 6.9 mph - N/A   Mostly Cloudy
4:53 PM 86.0 °F 84.7 °F 55.9 °F 36% 29.99 in 10.0 mi SSW 10.4 mph - N/A   Mostly Cloudy
5:53 PM 84.0 °F 83.3 °F 57.0 °F 40% 29.99 in 10.0 mi SW 6.9 mph - N/A   Clear
6:53 PM 82.9 °F 82.4 °F 57.0 °F 41% 29.98 in 10.0 mi SSW 3.5 mph - N/A   Clear
7:53 PM 80.1 °F 80.7 °F 59.0 °F 48% 29.98 in 10.0 mi Calm Calm - N/A   Clear
8:53 PM 78.1 °F - 60.1 °F 54% 29.98 in 10.0 mi Calm Calm - N/A   Clear
9:53 PM 77.0 °F - 60.1 °F 56% 30.00 in 10.0 mi South 5.8 mph - N/A   Clear
10:53 PM 75.0 °F - 61.0 °F 62% 30.01 in 10.0 mi South 3.5 mph - N/A   Clear
11:53 PM 73.9 °F - 59.0 °F 59% 30.00 in 10.0 mi South 8.1 mph - N/A   Clear